Tracking 23762 objects as of 22-Oct-2021
HD Live streaming from Space Station
objects crossing your sky now

CZ-4B DEB

Track CZ-4B DEB now!
10-day predictions


NORAD ID: 46483
Int'l Code: 2020-067F
Perigee: 518.8 km
Apogee: 656.8 km
Inclination: 97.9 °
Period: 96.3 minutes
Semi major axis: 6958 km
RCS: Unknown
Launch date: September 27, 2020
Source: People's Republic of China (PRC)
Launch site: Taiyaun Space Center, China (TSC)

Note: This is SATELLITE DEBRIS
aabbcc
Your satellite tracking list
Your tracking list is empty




NASA's NSSDC Master Catalog

Two Line Element Set (TLE):
1 46483U 20067F   21294.49420545  .00001346  00000-0  11554-3 0  9994
2 46483  97.9391  21.0909 0099189 157.5304 203.0306 14.95543716 58177
Source of the keplerian elements: AFSPC